Retour au catalogue

DELTA 1 DEB

LostSSO
NORAD 42572·DEBRIS·🇺🇸 United States

Lancé Nov 6, 1973 depuis Vandenberg Space Force Base

Loading…

Prochains Passages (prochaines 24 heures)

TLE

PériméSource: Space-Track

Époque: Jun 11, 2026, 06:08 UTC

1 42572U 73086HL  26162.25585172 -.00000014  00000-0  11642-3 0  9999
2 42572 101.8773 176.4751 0574327 324.3707  32.0270 12.54308472938509

Suivez DELTA 1 DEB en temps réel avec AllMySat

Download on the App Store